Fran Budimir

スカウト - Imotski
3 12月 2028
日曜日
処理

性格

適応力 (3) 野心 (4) 物議 (12) 忠誠心 (18) プレッシャー耐性 (1) プロ意識 (3) スポーツマンシップ (10) 気質 (1)

プロフィール

指導スタイル 民主型
ライセンス 国内B級
決断力 7
人材管理 2
モチベーション 8
規律 2
仕事満足度
100%
疲労度
0%
役職 スカウト
給与 7.1K 週給
契約 14.03.2029

パフォーマンス

態度 良い
トレーニング効果
28%
選手育成
25%
怪我予防
25%
戦術実行
35%

最近の出来事

補強会議に出席 たった今
選手を視察 たった今
選手を視察 たった今
選手を視察 7日前
選手を視察 7日前
選手を視察 7日前
選手を視察 7日前
選手を視察 7日前

監視中

95
選手 クラブ 状態 能力 自信 視察済み 最終確認 最新投票
Gianluca Pugliese Güemes アクティブ 109 / 125 40% 2 02.12.2028 -
Lautaro Disanto Defensores Unidos アクティブ 103 / 124 40% 3 02.12.2028 -
Elías Ayala Madryn アクティブ 118 / 110 40% 3 01.12.2028 -
Franco Ayunta Temperley アクティブ 109 / 104 40% 2 01.12.2028 -
Ismail Mukhtar El-Kanemi Warriors アクティブ 80 / 73 40% 2 29.11.2028 -
Maximiliano Rueda Patronato アクティブ 101 / 106 40% 1 29.11.2028 -
Marco Miori Alvarado アクティブ 120 / 104 40% 2 28.11.2028 -
Franco Bustamante Almagro アクティブ 111 / 90 40% 1 28.11.2028 -
Adeshina Gata Kwara United アクティブ 86 / 83 40% 1 26.11.2028 -
Antonio Napolitano Agropecuario Argentino アクティブ 99 / 128 40% 6 25.11.2028 -
Nazareno Petrecca Nueva Chicago アクティブ 94 / 117 40% 1 25.11.2028 -
Johan Campaña Patriotas アクティブ 113 / 101 40% 4 23.11.2028 -
Kabiru Abdullahi Barau アクティブ 80 / 83 40% 1 22.11.2028 -
Matteo Trombini Arsenal アクティブ 109 / 120 40% 1 22.11.2028 -
Matías Sosa Arsenal アクティブ 106 / 104 40% 1 21.11.2028 -
Santino Sciacqua Colón アクティブ 111 / 118 40% 1 21.11.2028 -
Damián Adín San Miguel アクティブ 124 / 96 40% 1 20.11.2028 -
Sebastián de Marco Fenix アクティブ 111 / 120 40% 2 19.11.2028 -
Santiago Gutiérrez Alvarado アクティブ 120 / 104 40% 3 19.11.2028 -
Emiliano Purita All Boys アクティブ 112 / 92 40% 3 17.11.2028 -
Dylan Cabral Arsenal アクティブ 111 / 124 40% 3 16.11.2028 -
Diego Gaitán Maipú アクティブ 127 / 126 40% 1 16.11.2028 -
Juan David Rueda Alianza Petrolera アクティブ 117 / 105 40% 3 15.11.2028 -
Facundo Taborda Racing アクティブ 96 / 103 40% 1 15.11.2028 -
Renzo Reynaga Patronato アクティブ 94 / 117 40% 2 13.11.2028 -
Santiago Moyano Central Córdoba SdE アクティブ 111 / 109 40% 3 10.11.2028 -
Musa Afeez Kwara United アクティブ 94 / 100 40% 1 10.11.2028 -
David Eke Enyimba アクティブ 73 / 91 40% 2 09.11.2028 -
Jhon Solís Fortaleza CEIF アクティブ 98 / 103 40% 2 09.11.2028 -
Naziru Auwalu Wikki Tourists アクティブ 91 / 102 40% 2 06.11.2028 -
Santiago Camacho Estudiantes アクティブ 89 / 107 40% 2 06.11.2028 -
Miguel Ceccotti Güemes アクティブ 125 / 95 40% 2 05.11.2028 -
Luis Sandoval Independiente Medellin アクティブ 120 / 121 40% 1 04.11.2028 -
Jerónimo Porto Lapegüe San Telmo アクティブ 123 / 109 40% 2 02.11.2028 -
Siro Rosané Estudiantes アクティブ 118 / 133 40% 1 02.11.2028 -
Facundo Villarreal Los Andes アクティブ 100 / 103 40% 2 30.10.2028 -
Francisco Funes Los Andes アクティブ 95 / 95 40% 1 29.10.2028 -
Gustavo Viera Cerro Largo アクティブ 117 / 90 40% 1 26.10.2028 -
Santiago Kubiszyn Morón アクティブ 102 / 99 40% 1 25.10.2028 -
Agustín Pereira Albion アクティブ 125 / 130 40% 1 25.10.2028 -
Agustín Ojeda Chaco For Ever アクティブ 98 / 119 40% 1 21.10.2028 -
Pedro Sanz Central Norte アクティブ 99 / 119 40% 2 20.10.2028 -
Mafeng Pam Plateau United アクティブ 76 / 100 40% 1 20.10.2028 -
Yeferson Rodallega Envigado アクティブ 132 / 99 40% 2 18.10.2028 -
Alan Olinick Racing アクティブ 100 / 129 40% 2 17.10.2028 -
Camilo Machado Madryn アクティブ 115 / 101 40% 1 17.10.2028 -
Gideon Manaseh Ikorodu City アクティブ 84 / 92 40% 1 15.10.2028 -
David Veliz Güemes アクティブ 104 / 101 40% 1 14.10.2028 -
Yeferson Contreras Estudiantes de Caracas アクティブ 101 / 97 40% 1 14.10.2028 -
Álvaro Meléndez Real Cartagena アクティブ 100 / 99 40% 2 12.10.2028 -
Gerónimo Tomasetti Temperley アクティブ 105 / 91 40% 1 12.10.2028 -
Estanislao Jara Madryn アクティブ 97 / 107 40% 2 10.10.2028 -
Alao Dabani Nasarawa United アクティブ 92 / 97 40% 1 10.10.2028 -
José Barreto Quilmes アクティブ 123 / 98 40% 1 07.10.2028 -
Samuel Bello Patriotas アクティブ 86 / 111 40% 1 05.10.2028 -
Shuaibu Ibrahim Wikki Tourists アクティブ 102 / 105 40% 1 04.10.2028 -
Lautaro Díaz San Martín アクティブ 97 / 99 40% 1 03.10.2028 -
Tobías Macies Almagro アクティブ 91 / 111 40% 1 03.10.2028 -
Marcos Enrique Tristán Suárez アクティブ 111 / 131 40% 1 02.10.2028 -
Dehinde Ibrahim Bayelsa United アクティブ 97 / 85 40% 1 02.10.2028 -
Franco Malagueño Colegiales アクティブ 105 / 117 40% 1 21.08.2028 -
Paolo Dorini Estudiantes de Merida アクティブ 86 / 94 40% 1 20.08.2028 -
Seth Mayi Warri Wolves アクティブ 87 / 99 40% 1 18.08.2028 -
Enzo Silcan Almagro アクティブ 97 / 129 40% 1 18.08.2028 -
Ariel Castellano Alvarado アクティブ 98 / 111 40% 1 17.08.2028 -
Salman Abubakar Mosta アクティブ 100 / 87 40% 1 16.08.2028 -
Bruno Pérez Madryn アクティブ 120 / 109 40% 1 13.08.2028 -
Richmond Lamptey Ashanti Gold アクティブ 115 / 90 40% 2 10.08.2028 -
Fernando Duré Estudiantes アクティブ 95 / 111 40% 1 07.08.2028 -
Franco Zicarelli Colegiales アクティブ 107 / 92 40% 1 07.08.2028 -
Will Hondermarck Great Olympics アクティブ 85 / 111 40% 1 31.07.2028 -
Kehinde Lawal Bayelsa United アクティブ 84 / 94 40% 1 24.07.2028 -
Manuele Malotti Livorno アクティブ 93 / 116 40% 1 24.07.2028 -
Yevhen Smyrnyi Kudrivka アクティブ 96 / 111 40% 2 04.07.2028 -
Jaiminho Leiria アクティブ 99 / 122 40% 1 04.07.2028 -
Daniel Valdelamar Yenisey アクティブ 108 / 97 40% 1 27.06.2028 -
Frazer Blake-Tracy Newport County アクティブ 89 / 98 40% 1 22.06.2028 -
Jhon Murillo Jaguares アクティブ 124 / 109 40% 1 22.06.2028 -
Thomas Agyepong Berekum Chelsea アクティブ 103 / 80 40% 1 21.06.2028 -
Yegor Noskov SKA Khabarovsk アクティブ 113 / 111 40% 1 21.06.2028 -
Ishmael Addo Heart of Lions アクティブ 78 / 98 40% 1 19.06.2028 -
Luka Bilandžić Rudes アクティブ 60 / 76 51% 1 12.06.2028 -
Saber Hraiech Trapani アクティブ 95 / 99 40% 1 07.06.2028 -
Antonio Salado Ospitaletto アクティブ 100 / 107 40% 1 07.06.2028 -
Ilja Zhigulev Chernomorets アクティブ 97 / 96 40% 1 04.06.2028 -
Juan Pablo Ramírez Chernomorets アクティブ 93 / 99 40% 1 02.06.2028 -
Abeiku Partey Liberty Professionals アクティブ 95 / 97 40% 1 02.06.2028 -
Robert Murić Floriana アクティブ 102 / 103 40% 1 02.06.2028 -
Kristijan Simunovic Cibalia アクティブ 73 / 73 51% 1 24.01.2028 -
Sime Srna Cibalia アクティブ 74 / 100 51% 1 01.01.2028 -
Bartol Kunert Segesta アクティブ 83 / 89 51% 1 01.06.2027 -
Renato Solís Sporting Cristal アクティブ 121 / 142 40% 1 04.08.2026 -
John Amah Plateau United アクティブ 95 / 106 40% 1 04.08.2026 -
Thomas Carrique Andorra アクティブ 111 / 104 40% 1 01.08.2026 -
Rodrigo Saracho San Marcos de Arica アクティブ 130 / 124 40% 1 01.08.2026 -